Ocean City, MD

2:22 AM EDT on August 25, 2016 (GMT -0400)
Ocean City Municipal

Weather History for KOXB - August, 2013

Change the Weather History Date:

Tuesday, August 20, 2013

  Actual Average (KSBY) Record (KSBY)
Temperature  
Mean Temperature 74 °F 75 °F  
Max Temperature 79 °F 84 °F 99 °F (1914)
Min Temperature 68 °F 65 °F 48 °F (1918)
Degree Days  
Heating Degree Days 0 0  
Month to date heating degree days 0  
Since 1 June heating degree days 20  
Since 1 July heating degree days 1  
Cooling Degree Days 8 10  
Month to date cooling degree days 211  
Year to date cooling degree days 886  
Since 1 June cooling degree days 802  
Growing Degree Days 24 (Base 50)    
Moisture  
Dew Point 69 °F    
Average Humidity 86    
Maximum Humidity 96    
Minimum Humidity 74    
Precipitation  
Precipitation 0.00 in 0.14 in 3.13 in (1969)
Month to date precipitation 3.03  
Year to date precipitation 29.67  
Snow  
Snow 0.00 in 0.00 in T in (1951)
Month to date snowfall 0.0  
Since 1 July snowfall 0.0  
Snow Depth -    
Sea Level Pressure  
Sea Level Pressure 30.14 in    
Wind  
Wind Speed 3 mph (SW)    
Max Wind Speed 8 mph    
Max Gust Speed -    
Visibility 9 miles    
Events      
T = Trace of Precipitation, MM = Missing Value Source: NWS Daily Summary

Daily Weather History Graph

Daily Weather History Graph

Search for Another Location

Airport or City:

Trip Planner

Search our weather history database for the weather conditions in past years. The results will help you decide how hot, cold, wet, or windy it might be!

Date:

Astronomy

Aug. 20, 2013 Rise Set
Actual Time 6:19 AM EDT 7:47 PM EDT
Civil Twilight 5:51 AM EDT 8:14 PM EDT
Nautical Twilight 5:18 AM EDT 8:48 PM EDT
Astronomical Twilight 4:43 AM EDT 9:23 PM EDT
Moon 7:18 PM EDT (8/20) 5:46 AM EDT (8/20)
Length of Visible Light 14h 23m
Length of Day
13h 27m
Full, 100% of the Moon is Illuminated
Aug 20
Full
Aug 20
Full
Aug 28
Last Quarter
Sep 5
New
Sep 12
First Quarter

Hourly Weather History & Observations

Time (EDT) Temp. Dew Point Humidity Pressure Visibility Wind Dir Wind Speed Gust Speed Precip Events Conditions
12:53 AM 70.0 °F 68.0 °F 93% 30.11 in 10.0 mi Calm Calm - N/A   Overcast
1:53 AM 69.1 °F 68.0 °F 96% 30.10 in 8.0 mi West 3.5 mph - N/A   Overcast
2:53 AM 69.1 °F 66.9 °F 93% 30.10 in 6.0 mi Calm Calm - N/A   Overcast
3:53 AM 68.0 °F 66.0 °F 93% 30.10 in 4.0 mi Calm Calm - N/A   Overcast
4:53 AM 68.0 °F 66.9 °F 96% 30.10 in 6.0 mi Calm Calm - N/A   Overcast
5:53 AM 69.1 °F 66.9 °F 93% 30.12 in 7.0 mi Calm Calm - N/A   Overcast
6:53 AM 70.0 °F 66.9 °F 90% 30.13 in 10.0 mi Calm Calm - N/A   Overcast
7:53 AM 70.0 °F 66.9 °F 90% 30.15 in 10.0 mi NW 3.5 mph - N/A   Overcast
8:53 AM 73.0 °F 66.9 °F 81% 30.16 in 10.0 mi North 4.6 mph - N/A   Overcast
9:53 AM 73.9 °F 66.9 °F 79% 30.17 in 10.0 mi NW 3.5 mph - N/A   Overcast
10:53 AM 77.0 °F 68.0 °F 74% 30.18 in 10.0 mi Variable 4.6 mph - N/A   Mostly Cloudy
11:53 AM 75.0 °F 68.0 °F 79% 30.18 in 10.0 mi Variable 4.6 mph - N/A   Mostly Cloudy
12:11 PM 75.2 °F 68.0 °F 78% 30.18 in 10.0 mi SSE 6.9 mph - N/A   Scattered Clouds
12:48 PM 77.0 °F 69.8 °F 78% 30.17 in 10.0 mi Variable 5.8 mph - N/A   Mostly Cloudy
12:53 PM 77.0 °F 69.1 °F 76% 30.17 in 10.0 mi SSE 5.8 mph - N/A   Scattered Clouds
1:53 PM 78.1 °F 70.0 °F 76% 30.17 in 10.0 mi South 8.1 mph - N/A   Clear
2:53 PM 79.0 °F 70.0 °F 74% 30.15 in 10.0 mi Variable 6.9 mph - N/A   Clear
3:53 PM 78.1 °F 71.1 °F 79% 30.14 in 10.0 mi South 6.9 mph - N/A   Clear
4:53 PM 78.1 °F 71.1 °F 79% 30.13 in 10.0 mi South 4.6 mph - N/A   Clear
5:53 PM 78.1 °F 71.1 °F 79% 30.12 in 10.0 mi SSW 8.1 mph - N/A   Clear
6:53 PM 75.9 °F 71.1 °F 85% 30.13 in 10.0 mi SSW 6.9 mph - N/A   Clear
7:53 PM 73.9 °F 70.0 °F 87% 30.14 in 10.0 mi SSW 4.6 mph - N/A   Clear
8:53 PM 73.0 °F 71.1 °F 93% 30.15 in 10.0 mi SW 4.6 mph - N/A   Clear
9:53 PM 72.0 °F 70.0 °F 93% 30.17 in 10.0 mi WSW 3.5 mph - N/A   Clear
10:53 PM 68.0 °F 66.9 °F 96% 30.17 in 7.0 mi Calm Calm - N/A   Clear
11:53 PM 68.0 °F 66.9 °F 96% 30.17 in 5.0 mi Calm Calm - N/A   Clear